Temp
-7 -6 -6 -6 -6 -6 -6 -6 -7 -7 -7 -6 -5 -5 -5 -7 -6 -5 -5 -5 -6 -5 -5 -5 -5 -5 -5 -5 -4 -4 -4 -4 -4 -4 -3 -3 -3 -3 -4 -4 -4 -5 -5 -5 -5 -5 -5 -6 -6
-7 -7 -6 -7 -6 -6 -6 -7 -7 -7 -8 -4 -5 -6 -7 -7 -6 -6 -6 -6 -6 -6 -6 -6 -6 -6 -5 -5 -5 -5 -5 -5 -5 -5 -4 -4 -4 -3 -3 -4 -4 -4 -5 -5 -6 -6 -6 -6 -6
-7 -7 -7 -7 -6 -6 -7 -7 -7 -8 -7 -6 -6 -6 -6 -5 -5 -5 -6 -6 -6 -6 -6 -6 -5 -6 -6 -6 -6 -5 -5 -5 -5 -5 -5 -5 -5 -5 -4 -4 -4 -5 -5 -6 -6 -6 -7 -7 -7
-8 -8 -7 -7 -6 -6 -7 -8 -7 -8 -7 -6 -6 -6 -6 -6 -5 -6 -6 -7 -6 -6 -6 -6 -6 -6 -6 -5 -6 -6 -5 -5 -5 -5 -5 -5 -5 -5 -5 -5 -5 -5 -5 -6 -6 -7 -7 -7 -7
-8 -8 -7 -7 -7 -7 -8 -8 -8 -8 -9 -9 -6 -8 -6 -6 -6 -6 -6 -6 -6 -6 -6 -6 -6 -6 -6 -6 -6 -6 -6 -6 -6 -6 -6 -6 -6 -6 -6 -5 -5 -5 -6 -6 -6 -7 -7 -7 -8
-8 -8 -8 -7 -7 -8 -8 -9 -8 -8 -8 -9 -7 -7 -7 -6 -6 -6 -6 -7 -6 -6 -7 -7 -7 -6 -6 -6 -6 -6 -6 -6 -6 -6 -6 -6 -7 -7 -6 -6 -6 -6 -6 -6 -6 -7 -7 -7 -8
-8 -8 -8 -8 -8 -8 -10 -9 -9 -8 -8 -9 -9 -8 -7 -6 -5 -6 -7 -7 -7 -7 -7 -7 -7 -7 -7 -7 -7 -6 -7 -7 -7 -6 -6 -6 -7 -7 -7 -7 -7 -7 -7 -7 -7 -7 -7 -7 -8
-8 -8 -8 -8 -8 -8 -10 -11 -10 -8 -8 -9 -9 -8 -7 -6 -6 -7 -7 -7 -7 -7 -7 -7 -7 -7 -7 -7 -7 -7 -7 -7 -7 -7 -7 -7 -7 -7 -8 -7 -7 -7 -8 -8 -7 -7 -8 -8 -8
-8 -8 -8 -8 -8 -8 -9 -11 -11 -8 -8 -9 -7 -7 -8 -7 -8 -7 -7 -8 -8 -7 -7 -7 -7 -8 -8 -8 -8 -8 -8 -8 -8 -8 -8 -8 -8 -8 -8 -8 -8 -8 -8 -8 -8 -8 -8 -8 -8
-8 -8 -8 -8 -8 -8 -9 -10 -10 -9 -7 -7 -8 -7 -8 -9 -8 -8 -9 -9 -8 -8 -7 -8 -8 -8 -8 -8 -9 -9 -9 -9 -9 -9 -9 -9 -9 -9 -9 -9 -9 -8 -8 -9 -9 -9 -9 -9 -8
-9 -8 -8 -9 -9 -8 -8 -8 -7 -8 -7 -7 -8 -8 -8 -8 -8 -9 -8 -8 -8 -8 -8 -8 -8 -9 -9 -9 -9 -9 -9 -9 -9 -9 -9 -9 -9 -9 -9 -9 -9 -9 -9 -9 -9 -9 -9 -9 -9
-8 -8 -9 -9 -9 -8 -8 -8 -8 -8 -8 -8 -7 -7 -7 -7 -8 -8 -8 -8 -9 -9 -9 -6 -8 -8 -9 -9 -10 -10 -10 -10 -9 -10 -10 -10 -10 -10 -10 -10 -10 -10 -10 -10 -10 -10 -10 -9 -9
-9 -9 -9 -9 -9 -8 -8 -8 -8 -8 -8 -8 -8 -8 -8 -8 -8 -8 -8 -9 -9 -8 -9 -8 -7 -7 -10 -10 -10 -10 -10 -11 -10 -10 -10 -10 -10 -11 -10 -10 -9 -10 -10 -10 -10 -10 -10 -10 -10
-9 -9 -9 -8 -8 -9 -8 -9 -9 -9 -9 -8 -8 -9 -8 -8 -8 -9 -9 -8 -9 -9 -9 -8 -7 -7 -10 -11 -9 -10 -10 -11 -11 -10 -11 -11 -11 -11 -10 -10 -11 -10 -10 -10 -11 -10 -10 -10 -10
-9 -9 -9 -9 -9 -9 -9 -8 -8 -9 -9 -8 -8 -8 -8 -8 -9 -8 -9 -9 -9 -9 -10 -9 -7 -7 -10 -9 -10 -10 -10 -10 -10 -10 -12 -11 -11 -11 -11 -11 -11 -11 -11 -10 -10 -10 -10 -10 -10
-10 -10 -9 -10 -10 -10 -9 -8 -9 -10 -9 -8 -8 -9 -8 -8 -8 -9 -9 -9 -9 -8 -9 -10 -9 -7 -8 -10 -10 -10 -10 -10 -10 -10 -10 -11 -11 -11 -11 -11 -11 -12 -11 -11 -11 -10 -10 -10 -11
-10 -10 -10 -10 -11 -11 -9 -9 -10 -10 -9 -9 -9 -8 -8 -8 -8 -9 -9 -9 -8 -8 -8 -9 -9 -10 -9 -10 -10 -10 -10 -10 -10 -10 -10 -10 -11 -12 -11 -11 -12 -11 -11 -11 -10 -11 -11 -10 -11
-11 -11 -11 -11 -13 -12 -10 -10 -10 -10 -9 -9 -10 -9 -9 -9 -9 -9 -9 -9 -9 -8 -8 -9 -8 -9 -10 -9 -10 -10 -10 -10 -11 -11 -11 -11 -11 -13 -12 -12 -12 -12 -11 -12 -11 -11 -10 -11 -11
-12 -13 -13 -14 -13 -14 -13 -10 -11 -11 -11 -10 -10 -10 -10 -10 -11 -11 -10 -10 -10 -9 -9 -9 -9 -9 -9 -10 -9 -9 -10 -10 -10 -11 -12 -12 -11 -11 -13 -13 -13 -12 -12 -12 -12 -11 -11 -12 -11
-12 -12 -11 -11 -12 -12 -12 -11 -10 -11 -11 -11 -11 -11 -11 -11 -10 -10 -10 -10 -8 -8 -10 -10 -10 -10 -10 -10 -10 -10 -10 -10 -11 -11 -11 -12 -12 -11 -13 -13 -13 -13 -12 -13 -12 -12 -12 -11 -12
-12 -11 -11 -12 -12 -12 -14 -11 -11 -11 -11 -11 -10 -10 -11 -11 -11 -11 -11 -10 -9 -9 -10 -11 -10 -10 -10 -10 -11 -11 -11 -11 -11 -11 -11 -11 -12 -11 -12 -13 -13 -12 -12 -12 -12 -12 -12 -12 -12
-12 -12 -12 -12 -12 -12 -13 -12 -12 -13 -13 -12 -10 -10 -11 -11 -11 -11 -10 -10 -9 -10 -10 -10 -10 -10 -11 -11 -11 -11 -11 -11 -12 -12 -12 -12 -12 -11 -11 -12 -13 -13 -12 -12 -11 -12 -12 -12 -11
-13 -13 -13 -14 -13 -12 -12 -12 -12 -12 -12 -13 -13 -13 -11 -10 -10 -11 -10 -11 -10 -10 -10 -10 -10 -11 -11 -11 -11 -11 -11 -12 -12 -12 -12 -13 -11 -9 -10 -11 -12 -11 -11 -11 -11 -12 -12 -13 -13
-13 -13 -13 -13 -13 -12 -12 -12 -12 -12 -13 -13 -14 -13 -14 -10 -9 -10 -11 -11 -10 -10 -10 -10 -9 -10 -11 -11 -12 -12 -12 -12 -12 -12 -12 -12 -12 -10 -12 -12 -13 -11 -10 -11 -12 -12 -12 -12 -12
-15 -14 -14 -14 -14 -12 -13 -14 -13 -13 -13 -13 -13 -13 -13 -12 -11 -12 -12 -11 -11 -10 -10 -9 -10 -10 -9 -10 -10 -11 -11 -12 -12 -12 -13 -13 -13 -12 -9 -10 -10 -11 -13 -13 -13 -13 -13 -12 -12
-15 -16 -16 -15 -15 -15 -14 -14 -13 -13 -13 -13 -13 -14 -13 -13 -13 -13 -11 -12 -11 -10 -10 -10 -10 -10 -10 -10 -11 -11 -11 -11 -12 -12 -13 -13 -13 -13 -11 -8 -9 -11 -15 -14 -13 -13 -13 -13 -12
-16 -16 -16 -16 -15 -14 -13 -13 -13 -13 -13 -14 -14 -14 -14 -13 -13 -13 -13 -12 -11 -11 -10 -10 -11 -11 -11 -11 -11 -11 -11 -12 -12 -12 -12 -13 -13 -13 -13 -10 -10 -11 -11 -13 -15 -13 -13 -13 -13
-15 -15 -15 -15 -15 -15 -14 -15 -15 -14 -14 -14 -14 -14 -13 -13 -13 -13 -13 -12 -12 -11 -11 -11 -11 -11 -12 -12 -11 -11 -12 -12 -12 -12 -12 -13 -13 -14 -14 -13 -12 -11 -12 -12 -14 -15 -14 -13 -13
-15 -15 -15 -15 -15 -15 -15 -15 -14 -14 -14 -14 -14 -14 -14 -15 -15 -14 -11 -11 -12 -12 -12 -12 -11 -12 -12 -12 -12 -12 -12 -12 -13 -13 -13 -13 -14 -15 -14 -14 -14 -14 -13 -13 -14 -13 -13 -12 -12
-15 -15 -16 -16 -15 -15 -15 -13 -15 -15 -15 -15 -15 -15 -15 -15 -14 -14 -13 -12 -12 -13 -13 -13 -12 -12 -12 -12 -13 -13 -14 -14 -14 -15 -15 -14 -14 -15 -15 -15 -15 -15 -14 -13 -13 -14 -12 -13 -13
Height
5869 5872 5875 5877 5882 5886 5891 5896 5902 5896 5894 5893 5895 5902 5901 5893 5900 5901 5901 5903 5908 5908 5909 5910 5910 5910 5910 5911 5911 5911 5911 5911 5911 5911 5910 5909 5908 5907 5907 5907 5906 5907 5907 5906 5906 5906 5906 5906 5906
5866 5868 5871 5872 5877 5881 5891 5896 5896 5894 5884 5887 5898 5901 5900 5892 5897 5899 5899 5901 5906 5907 5908 5909 5910 5909 5909 5910 5910 5910 5911 5910 5910 5910 5910 5909 5908 5906 5906 5905 5905 5905 5905 5905 5905 5905 5905 5906 5905
5863 5865 5868 5871 5873 5878 5887 5885 5881 5883 5883 5886 5894 5895 5891 5885 5891 5898 5899 5899 5903 5904 5906 5907 5908 5909 5909 5908 5908 5909 5909 5909 5909 5908 5908 5908 5907 5907 5906 5905 5904 5904 5903 5904 5904 5904 5904 5905 5904
5859 5861 5864 5866 5870 5878 5881 5878 5877 5876 5876 5881 5887 5887 5886 5888 5890 5894 5896 5895 5899 5901 5902 5904 5905 5906 5906 5906 5907 5907 5907 5907 5907 5907 5906 5905 5905 5906 5906 5906 5905 5902 5902 5902 5901 5902 5902 5903 5903
5853 5855 5858 5861 5868 5873 5873 5876 5872 5874 5876 5875 5882 5880 5874 5886 5883 5891 5892 5893 5894 5897 5898 5900 5901 5903 5904 5904 5904 5903 5903 5904 5904 5904 5904 5904 5903 5903 5903 5903 5903 5902 5901 5901 5900 5901 5901 5900 5901
5848 5851 5852 5857 5864 5868 5870 5871 5867 5872 5874 5871 5879 5875 5868 5872 5881 5885 5887 5888 5889 5892 5893 5894 5896 5897 5899 5900 5900 5900 5900 5900 5900 5901 5901 5901 5901 5901 5901 5901 5901 5901 5900 5899 5899 5899 5899 5898 5899
5845 5846 5849 5854 5859 5862 5866 5864 5867 5868 5871 5870 5866 5873 5867 5861 5873 5879 5882 5883 5883 5885 5889 5889 5890 5891 5892 5893 5895 5895 5896 5896 5896 5897 5898 5898 5898 5898 5898 5898 5898 5899 5898 5898 5897 5897 5896 5896 5896
5840 5841 5843 5847 5852 5856 5861 5863 5855 5861 5866 5860 5859 5872 5860 5856 5859 5875 5875 5876 5877 5878 5882 5883 5884 5887 5887 5888 5888 5890 5891 5891 5892 5892 5893 5894 5894 5895 5895 5896 5895 5895 5895 5895 5896 5895 5894 5894 5894
5832 5834 5837 5843 5845 5850 5854 5853 5850 5853 5858 5856 5852 5869 5859 5853 5862 5869 5869 5868 5870 5871 5874 5878 5879 5881 5882 5883 5884 5885 5886 5887 5887 5887 5888 5888 5889 5890 5890 5891 5892 5892 5892 5892 5891 5891 5891 5891 5890
5824 5828 5833 5836 5840 5841 5841 5842 5844 5840 5850 5852 5854 5859 5859 5853 5857 5862 5863 5865 5862 5862 5867 5871 5873 5875 5877 5878 5879 5880 5881 5882 5882 5883 5883 5884 5884 5885 5885 5887 5886 5887 5887 5887 5888 5889 5889 5888 5888
5820 5823 5826 5829 5831 5828 5832 5834 5835 5837 5841 5845 5848 5850 5851 5851 5849 5854 5858 5858 5860 5858 5856 5859 5866 5866 5868 5871 5873 5875 5876 5876 5876 5877 5877 5877 5878 5879 5881 5882 5882 5883 5883 5883 5883 5884 5885 5885 5884
5813 5816 5819 5821 5821 5818 5828 5828 5826 5831 5834 5835 5837 5842 5842 5845 5844 5848 5850 5853 5854 5852 5848 5847 5853 5857 5859 5860 5866 5866 5868 5869 5870 5870 5871 5872 5873 5874 5875 5878 5876 5877 5878 5878 5879 5879 5880 5879 5879
5807 5810 5812 5813 5814 5813 5819 5820 5822 5824 5825 5826 5830 5831 5834 5838 5837 5839 5842 5844 5844 5847 5845 5840 5845 5848 5847 5849 5853 5858 5860 5860 5861 5863 5863 5864 5864 5866 5867 5869 5871 5870 5871 5871 5872 5872 5873 5874 5874
5802 5804 5805 5807 5808 5809 5812 5814 5814 5816 5817 5818 5821 5824 5823 5826 5829 5831 5833 5834 5835 5839 5834 5833 5836 5835 5817 5834 5838 5846 5851 5851 5853 5853 5854 5855 5857 5857 5861 5862 5862 5865 5864 5866 5864 5866 5866 5868 5867
5795 5797 5799 5801 5802 5804 5804 5806 5807 5809 5809 5809 5811 5815 5817 5818 5820 5823 5824 5824 5827 5830 5828 5819 5824 5832 5825 5825 5827 5834 5839 5841 5843 5846 5845 5846 5846 5847 5848 5851 5852 5853 5857 5856 5860 5859 5859 5860 5859
5790 5791 5793 5796 5796 5797 5797 5801 5802 5802 5802 5801 5806 5807 5808 5810 5812 5812 5815 5815 5815 5821 5822 5816 5811 5814 5818 5816 5823 5826 5828 5831 5832 5833 5833 5836 5837 5837 5839 5841 5843 5844 5845 5847 5847 5848 5851 5850 5851
5783 5786 5788 5790 5791 5791 5791 5793 5796 5793 5796 5797 5798 5799 5802 5801 5803 5804 5806 5805 5805 5808 5812 5811 5811 5810 5808 5815 5814 5817 5818 5819 5821 5822 5822 5824 5826 5825 5826 5829 5833 5834 5834 5836 5837 5838 5839 5842 5844
5779 5781 5783 5785 5789 5782 5783 5783 5788 5787 5787 5790 5791 5790 5792 5792 5792 5794 5795 5794 5792 5798 5803 5802 5802 5804 5802 5803 5808 5807 5809 5810 5810 5811 5813 5812 5816 5817 5817 5820 5822 5823 5824 5826 5827 5829 5828 5829 5831
5772 5773 5775 5779 5782 5780 5773 5773 5779 5781 5781 5779 5781 5781 5781 5782 5782 5782 5782 5783 5783 5782 5790 5794 5793 5794 5795 5794 5795 5800 5799 5799 5799 5799 5800 5801 5803 5805 5808 5809 5811 5811 5815 5816 5816 5816 5819 5820 5820
5764 5765 5766 5770 5770 5770 5769 5769 5770 5772 5774 5774 5774 5774 5775 5774 5774 5774 5772 5769 5769 5775 5778 5778 5780 5782 5784 5784 5783 5784 5785 5786 5786 5787 5789 5791 5791 5795 5798 5799 5799 5800 5802 5804 5804 5805 5806 5808 5810
5756 5757 5760 5762 5762 5762 5761 5762 5763 5766 5766 5766 5766 5767 5768 5767 5766 5765 5761 5759 5761 5764 5773 5768 5768 5768 5771 5772 5772 5772 5772 5773 5774 5776 5777 5779 5779 5781 5783 5786 5787 5787 5789 5793 5794 5795 5795 5796 5796
5751 5752 5753 5753 5754 5754 5757 5753 5756 5759 5758 5756 5756 5759 5759 5758 5757 5753 5753 5754 5754 5755 5757 5760 5759 5759 5760 5761 5760 5760 5760 5762 5763 5762 5763 5763 5767 5768 5768 5767 5770 5770 5773 5776 5779 5780 5781 5783 5786
5743 5745 5744 5745 5745 5746 5748 5747 5749 5752 5752 5752 5750 5748 5745 5746 5745 5746 5748 5747 5745 5745 5744 5743 5744 5748 5748 5745 5747 5748 5748 5748 5749 5750 5751 5749 5749 5752 5754 5750 5746 5751 5753 5758 5760 5764 5766 5768 5771
5734 5736 5738 5738 5739 5735 5740 5742 5744 5746 5747 5747 5745 5740 5737 5732 5732 5738 5737 5734 5735 5733 5732 5732 5731 5735 5735 5735 5733 5731 5731 5733 5733 5734 5736 5741 5742 5743 5740 5729 5725 5731 5734 5737 5743 5748 5750 5752 5755
5724 5728 5729 5729 5729 5728 5736 5735 5736 5740 5739 5736 5734 5731 5728 5722 5725 5728 5724 5723 5725 5722 5721 5721 5721 5720 5721 5722 5720 5719 5718 5718 5719 5720 5720 5720 5724 5729 5731 5732 5730 5728 5723 5721 5730 5732 5738 5738 5740
5718 5721 5720 5719 5721 5723 5727 5724 5728 5729 5728 5725 5727 5721 5717 5716 5719 5717 5716 5715 5713 5711 5710 5711 5710 5707 5705 5706 5707 5706 5705 5706 5705 5704 5705 5705 5705 5708 5716 5726 5717 5666 5681 5698 5712 5720 5723 5727 5725
5712 5713 5717 5707 5707 5707 5715 5718 5719 5722 5713 5716 5716 5711 5709 5708 5706 5705 5705 5701 5700 5700 5698 5698 5699 5696 5694 5691 5690 5689 5689 5690 5689 5689 5689 5689 5690 5691 5695 5706 5703 5701 5688 5689 5694 5705 5711 5713 5714
5700 5706 5703 5703 5700 5701 5704 5707 5707 5707 5706 5709 5705 5703 5697 5696 5698 5696 5693 5691 5689 5686 5685 5683 5683 5683 5681 5678 5675 5674 5673 5672 5672 5672 5672 5672 5673 5674 5677 5684 5687 5686 5682 5691 5689 5693 5695 5698 5694
5695 5695 5695 5694 5694 5691 5694 5697 5703 5693 5697 5695 5695 5693 5689 5686 5682 5678 5676 5680 5679 5675 5673 5669 5668 5668 5666 5663 5661 5659 5656 5655 5654 5654 5654 5654 5653 5654 5656 5663 5667 5667 5671 5675 5675 5674 5675 5682 5686
5685 5686 5687 5685 5684 5685 5683 5680 5689 5690 5684 5683 5684 5682 5680 5677 5671 5668 5662 5664 5661 5662 5658 5657 5652 5652 5648 5645 5644 5642 5640 5641 5639 5640 5638 5635 5633 5633 5634 5641 5642 5645 5654 5658 5655 5663 5669 5665 5676
Wind_Speed
21 20 28 29 27 23 20 19 3 20 28 39 37 20 17 27 22 26 21 18 10 8 7 8 7 5 5 5 5 5 5 4 5 5 5 3 2 0 1 3 3 4 5 5 4 3 4 5 5
22 21 26 32 30 26 17 7 26 22 30 38 21 25 18 33 24 24 21 19 17 13 11 10 9 10 9 8 7 6 6 7 7 7 8 7 5 3 3 3 2 0 1 2 2 1 3 3 4
25 23 22 30 32 27 14 28 16 28 35 37 25 26 33 39 30 26 26 24 22 20 17 14 14 12 13 14 13 11 11 11 11 10 11 10 9 9 8 7 6 4 3 2 1 2 3 4 4
28 27 27 27 29 28 25 22 21 21 39 42 32 33 36 36 33 29 29 31 26 25 23 21 19 19 19 19 20 19 18 18 18 17 16 14 12 11 10 11 10 8 7 6 4 3 4 4 5
32 33 33 32 27 27 24 24 21 22 16 22 31 31 43 33 37 31 32 32 32 29 27 25 24 22 22 21 21 23 23 23 21 20 20 19 16 14 12 12 12 11 9 9 8 8 8 7 7
34 32 34 34 31 28 25 22 33 32 21 27 25 33 42 41 36 33 32 33 33 32 34 32 31 28 27 26 25 26 26 26 25 21 18 17 17 17 16 13 13 13 12 11 10 10 11 11 11
39 37 35 32 32 34 26 34 38 40 38 31 35 34 40 47 40 35 33 32 33 34 34 34 34 34 35 33 31 28 27 26 26 26 24 21 18 17 17 16 14 14 15 14 13 13 13 14 14
40 42 41 40 37 36 24 28 43 45 40 43 46 31 43 49 48 31 31 34 37 38 34 32 32 32 34 34 33 31 30 28 27 26 27 26 24 23 20 20 18 17 15 16 17 16 16 16 17
45 46 44 42 41 38 33 33 40 43 41 49 54 35 47 51 46 36 34 36 37 35 33 33 35 34 34 33 33 32 32 31 30 29 29 29 30 30 27 26 23 22 21 19 19 19 19 20 20
42 44 44 41 41 42 45 44 49 52 43 48 47 42 43 47 42 37 38 37 42 43 38 34 33 31 31 30 32 33 33 33 33 31 30 30 31 30 28 27 27 26 24 23 22 23 22 22 23
38 41 40 37 37 48 49 53 52 51 50 50 46 42 45 47 50 43 40 40 41 45 46 43 39 36 36 34 33 36 35 36 37 34 34 35 35 34 31 29 28 26 26 27 26 26 26 25 26
39 39 38 39 43 54 44 48 54 52 49 50 51 46 48 47 49 45 44 40 43 47 50 37 37 42 42 40 35 36 41 37 41 40 37 37 37 37 36 33 34 32 29 31 31 31 30 29 29
35 35 37 40 42 48 40 43 45 46 49 49 45 45 46 43 45 44 44 42 46 46 49 54 49 45 47 40 40 40 44 44 43 42 45 44 41 40 38 35 39 39 36 37 36 37 35 34 34
29 30 33 38 41 41 38 39 39 38 37 40 39 35 39 38 38 37 39 43 46 46 50 52 50 47 42 30 39 42 43 38 44 47 38 42 45 44 46 45 50 46 43 43 41 41 43 41 42
30 30 28 31 32 32 36 36 36 35 36 39 40 35 35 36 36 35 36 38 38 37 43 50 45 41 48 32 35 42 45 45 47 48 37 44 46 42 45 45 49 49 52 53 55 53 48 52 51
28 30 31 29 31 32 36 33 33 33 38 41 35 36 36 36 35 38 37 39 41 37 38 45 47 46 43 42 42 43 43 45 48 50 50 51 52 52 52 50 49 46 48 50 53 55 53 56 52
26 25 24 24 24 29 34 33 31 36 38 38 38 39 38 39 40 39 39 42 43 43 42 45 45 46 49 43 45 44 45 45 44 44 45 48 48 49 55 57 55 48 51 51 51 50 59 55 53
23 23 24 26 16 34 38 39 33 36 41 39 38 42 41 41 43 42 42 44 48 47 45 47 49 48 50 51 46 47 47 47 47 46 46 46 46 43 46 48 50 50 52 51 55 52 55 54 51
29 27 29 22 18 28 37 36 31 35 39 41 30 31 33 33 37 40 43 46 49 53 49 48 49 50 51 53 54 52 51 51 50 49 46 47 50 50 46 45 47 50 51 51 54 57 59 56 56
29 32 34 29 31 33 36 34 31 30 30 31 31 31 31 31 33 34 37 40 43 36 35 39 41 43 46 50 51 51 52 53 52 54 52 52 54 53 48 47 49 51 53 52 54 56 58 58 57
33 33 30 31 32 34 33 36 35 31 33 35 36 35 34 36 37 39 43 47 46 41 29 40 44 44 43 44 46 47 50 50 52 54 54 55 55 55 55 52 54 56 57 56 57 59 60 61 61
34 32 31 35 36 38 33 39 32 23 30 33 35 33 35 37 42 48 49 48 47 46 44 44 47 48 46 46 47 49 50 50 51 54 55 56 53 56 58 58 57 57 58 57 57 58 59 62 62
34 33 34 31 34 38 38 41 36 30 30 31 31 36 40 41 46 48 46 44 47 47 48 49 48 47 49 53 53 53 53 54 54 53 55 56 58 48 63 60 61 58 59 59 59 59 59 59 61
37 37 38 38 37 43 37 37 34 30 27 27 28 35 39 48 46 38 38 45 46 48 49 49 50 46 48 50 53 56 57 56 57 57 58 55 61 57 63 55 63 48 59 60 59 58 57 62 62
37 34 35 37 36 40 26 25 24 16 27 30 36 40 48 54 41 35 42 47 46 48 49 49 49 51 50 51 53 55 57 59 60 60 61 62 61 60 60 61 69 67 68 62 60 58 58 58 59
32 30 32 35 36 36 30 33 29 20 32 32 33 46 51 53 45 49 45 42 45 47 49 49 51 53 54 53 54 56 57 58 60 61 62 64 65 66 64 56 70 51 76 63 58 57 58 57 58
27 30 28 42 46 48 42 40 41 31 38 32 39 46 51 55 51 41 41 44 44 45 47 47 48 51 54 56 55 56 57 57 59 60 62 64 65 67 67 62 67 68 57 56 47 57 58 60 61
39 34 38 40 42 40 37 29 30 36 41 43 45 44 51 52 47 46 46 46 46 49 48 50 50 49 52 53 57 57 58 60 60 61 62 64 65 66 67 66 68 70 71 70 61 59 61 59 69
36 36 38 38 39 42 41 37 21 32 31 33 40 47 51 54 55 55 52 43 44 47 47 51 52 51 53 55 56 57 58 60 61 63 63 65 67 68 70 69 70 73 70 70 70 70 59 63 54
27 31 37 39 43 42 44 47 38 37 42 45 46 49 52 51 55 54 57 50 51 47 50 49 54 53 55 56 54 50 50 50 48 48 51 56 62 64 68 72 73 74 74 73 76 67 50 61 46
Wind_Direction
217 218 215 214 215 214 208 178 162 267 245 241 250 242 234 230 217 226 239 243 243 241 254 269 273 263 248 239 237 234 247 267 281 284 293 306 300 139 137 150 130 118 114 123 126 112 61 60 63
213 218 212 212 213 212 200 221 255 231 244 250 253 245 249 253 235 226 237 241 241 243 241 255 270 266 257 264 255 268 281 283 287 292 297 298 289 261 263 243 213 205 100 122 144 93 22 23 22
214 216 217 217 211 212 189 228 154 236 238 254 258 243 238 250 250 244 255 256 253 257 254 250 254 268 272 274 274 277 283 293 300 305 312 312 307 299 286 270 257 253 249 250 272 336 339 338 338
221 220 220 222 218 202 191 264 254 223 246 252 253 255 244 251 256 260 258 266 259 259 258 258 260 264 264 270 278 281 284 291 295 297 297 301 304 306 301 295 289 279 273 277 286 292 295 301 297
219 223 226 227 215 214 209 233 235 226 231 254 250 246 256 243 257 256 255 260 264 265 266 266 267 266 267 268 274 280 284 288 290 294 296 297 296 295 293 293 292 289 285 284 288 293 296 294 292
221 223 225 229 227 212 218 236 243 243 237 257 254 248 261 260 250 256 258 259 259 259 262 268 270 270 269 269 270 269 274 279 283 283 290 295 294 294 296 291 291 288 288 284 282 281 282 287 293
229 230 232 230 227 221 227 257 245 246 241 255 259 246 259 263 259 255 258 258 260 260 255 259 265 269 273 274 274 273 272 275 280 283 287 288 292 295 292 293 295 296 293 288 279 276 277 284 287
235 236 237 236 233 233 215 250 259 241 241 250 248 250 258 260 261 252 257 258 257 257 256 260 261 261 264 270 274 275 274 275 274 278 284 286 291 293 290 287 288 287 289 285 284 280 277 279 283
238 238 237 241 242 245 232 236 252 247 239 238 250 251 259 263 268 265 261 269 266 262 264 262 262 265 264 265 269 274 275 274 275 273 276 281 286 289 287 289 288 286 284 278 273 272 273 274 275
237 238 241 245 247 245 245 238 238 255 253 252 258 259 258 269 271 268 268 274 277 272 268 265 267 269 271 273 267 269 271 273 270 271 271 274 276 278 278 281 282 283 277 273 273 273 269 271 274
238 240 241 242 247 244 246 252 254 257 262 264 262 258 257 257 266 262 262 266 271 274 274 273 270 270 266 271 269 264 263 263 264 263 267 270 271 270 266 271 266 260 265 269 269 267 265 266 267
245 245 245 247 247 249 249 254 258 259 262 262 263 263 261 262 261 267 264 260 264 268 270 263 267 264 259 258 263 265 263 260 254 256 259 262 264 260 257 256 258 255 252 256 257 257 258 259 260
244 245 245 245 245 253 253 253 257 260 261 264 265 265 265 264 262 261 261 257 259 258 264 270 272 263 256 251 260 255 255 248 252 254 254 254 255 260 258 258 259 254 248 252 248 254 251 253 257
241 239 241 244 248 252 252 254 256 259 263 263 262 260 261 262 262 261 261 260 258 259 262 266 273 277 240 246 253 259 262 263 257 262 265 268 270 270 259 258 268 262 262 258 254 251 252 253 256
243 247 246 247 250 251 254 254 259 261 262 261 259 261 258 258 258 257 256 256 255 255 256 265 270 262 256 277 266 260 259 257 258 263 259 260 262 260 258 257 260 266 258 260 265 266 263 267 260
245 247 247 249 253 254 254 254 256 259 255 257 263 261 260 260 257 257 256 257 255 254 252 257 268 265 266 277 267 264 261 257 257 259 258 257 258 261 259 258 263 263 267 267 261 259 262 270 270
236 244 251 248 256 256 255 255 252 253 255 260 262 262 262 263 260 260 259 259 258 256 253 253 258 264 269 265 268 265 265 265 260 259 259 258 259 260 260 262 263 260 262 263 275 265 272 269 277
245 258 261 259 246 268 260 257 250 257 261 257 258 262 263 263 263 262 260 263 262 259 258 257 257 255 259 263 259 263 262 262 263 263 260 259 256 253 258 258 259 258 261 265 264 266 271 266 272
241 215 230 223 253 253 270 267 263 259 259 270 267 264 265 262 262 264 263 261 259 259 260 261 262 263 263 265 266 264 265 264 263 265 264 260 259 256 257 262 259 260 259 260 261 262 264 268 272
239 238 243 244 236 249 254 265 266 262 265 268 268 267 268 268 266 264 265 265 263 265 265 269 265 263 263 263 264 263 263 264 267 267 265 264 262 261 262 265 264 261 260 261 262 263 265 265 268
247 251 251 250 247 252 262 263 267 268 266 266 266 266 265 267 266 267 266 266 272 275 269 264 267 267 266 264 265 267 267 265 264 265 265 266 268 269 268 266 267 265 262 262 263 264 265 266 268
250 255 251 251 254 256 255 265 264 269 274 273 272 267 263 261 262 256 263 271 277 275 271 266 264 268 267 268 267 266 266 265 263 263 264 263 263 266 263 264 263 265 266 265 262 263 265 267 269
250 248 250 252 254 255 257 264 271 270 268 276 282 288 279 264 258 264 271 272 270 273 273 271 271 270 271 270 270 268 267 268 267 262 261 262 266 261 270 261 259 260 263 264 264 264 264 266 267
252 252 257 260 263 262 267 271 275 280 286 281 267 272 271 270 266 274 274 270 271 270 271 271 271 270 268 269 269 270 270 268 268 267 265 260 260 272 271 248 260 266 267 260 260 262 263 265 267
257 255 258 260 262 269 278 279 283 257 257 243 247 241 259 272 282 277 268 269 272 271 270 269 272 272 269 268 269 269 269 270 269 268 267 267 265 265 269 274 270 265 259 256 257 259 261 263 266
258 260 267 265 261 261 239 243 249 240 251 242 239 252 269 272 275 275 274 273 267 269 271 272 273 274 274 274 272 271 269 270 270 270 268 266 266 266 267 267 266 249 250 248 252 258 259 262 262
240 236 252 249 250 259 262 254 242 239 258 263 258 261 264 271 279 275 279 274 273 274 271 271 269 271 274 274 273 273 272 270 268 267 266 266 265 264 265 264 265 267 252 256 244 257 261 262 263
249 254 250 259 267 266 269 268 264 253 256 255 258 261 265 274 277 277 270 272 277 275 277 277 278 276 274 273 274 274 272 272 271 268 266 264 263 262 260 262 262 262 265 260 268 262 260 261 261
258 258 259 263 256 262 262 253 249 265 249 258 255 260 266 273 280 281 281 280 278 278 278 278 279 279 276 275 273 273 271 271 270 272 270 266 264 259 257 256 256 256 259 261 260 257 245 255 258
264 262 252 260 269 269 267 264 261 263 262 261 260 256 260 267 271 281 281 290 284 285 284 284 284 282 283 282 280 276 271 270 268 267 270 270 269 267 261 254 253 251 250 251 255 258 239 263 252